Regional Weather Roundup
Issued by NWS

Home | Current Version | Previous Version | Graphics & Text | Print | Product List | Glossary On
Versions: 1 2 3 4 5 6 7 8 9 10 11 12 13 14 15 16 17 18 19 20 21 22 23 24 25 26 27 28 29 30 31 32 33 34 35 36 37 38 39 40 41 42 43 44 45 46 47 48 49 50
000
ASUS43 KMKX 281511
RWRWI

WISCONSIN REGIONAL WEATHER ROUNDUP
NATIONAL WEATHER SERVICE MILWAUKEE/SULLIVAN WI
1000 AM CDT FRI AUG 28 2015

NOTE: "FAIR" INDICATES FEW OR NO CLOUDS BELOW 12,000 FEET WITH NO
SIGNIFICANT WEATHER AND/OR OBSTRUCTIONS TO VISIBILITY.

WIZ001-002-006>008-014>016-023>028-281600-
NORTHWEST WISCONSIN

CITY           SKY/WX    TMP DP  RH WIND       PRES   REMARKS
SUPERIOR ARPT  CLOUDY    65  61  87 SW7       29.98S
ASHLAND        CLOUDY    67  63  87 S8        29.99S
HAYWARD        PTSUNNY   67  60  78 SW14      30.03R
SIREN          PTSUNNY   69  63  80 SW8       30.02S
CUMBERLAND     CLOUDY    63  61  94 S7        30.05S
RICE LAKE      CLOUDY    66  61  83 S8        30.07R
CHETEK         CLOUDY   N/A N/A N/A MISG      30.06S
LADYSMITH      PTSUNNY   66  61  84 S8        30.08R
EAU CLAIRE     CLOUDY    65  59  81 S8        30.06S
MENOMONIE      CLOUDY    65  62  88 S5        30.06S
NEW RICHMOND   CLOUDY    66  63  89 S6        30.04F
OSCEOLA        CLOUDY    66  66 100 S7        30.06S
$$

WIZ003>005-009-010-017-018-281600-
NORTH CENTRAL WISCONSIN

CITY           SKY/WX    TMP DP  RH WIND       PRES   REMARKS
MANITOWISH WTR CLOUDY    64  61  88 SW9       30.04S
ARBOR VITAE    PTSUNNY   65  60  82 SW9       30.06R
WOODRUFF       PTSUNNY   65  60  82 SW9       30.06R
RHINELANDER    PTSUNNY   66  58  75 S14       30.08S
EAGLE RIVER    PTSUNNY   66  59  76 SW7G16    30.05F
LAND O LAKES   PTSUNNY   67  59  76 SW6       30.06S
PHILLIPS       PTSUNNY   65  60  85 SW7       30.05S
TOMAHAWK       CLOUDY    63  58  85 CALM      30.08S
MEDFORD        CLOUDY    64  60  87 SW10G17   30.10R
MERRILL        CLOUDY    65  61  86 SW10      30.10R
$$

WIZ029-030-035-036-043>047-281600-
CENTRAL WISCONSIN

CITY           SKY/WX    TMP DP  RH WIND       PRES   REMARKS
WAUSAU         CLOUDY    66  59  78 SW8       30.09R
MOSINEE        PTSUNNY   63  61  94 SW8       30.12R
MARSHFIELD     CLOUDY    64  57  78 SW8       30.10R
STEVENS POINT  CLOUDY    63  58  82 SW8       30.11R
WAUPACA        CLOUDY    67  60  79 S7        30.12R
WAUTOMA        CLOUDY    65  59  81 CALM      30.12R
WISC RAPIDS    CLOUDY    65  58  78 SW6       30.11S
CAMP DOUGLAS   LGT RAIN  64  64 100 SE2       30.10R
$$

WIZ011>013-019>022-031-037>040-048>050-281600-
NORTHEAST WISCONSIN

CITY           SKY/WX    TMP DP  RH WIND       PRES   REMARKS
ANTIGO         PTSUNNY   66  59  77 SW14      30.10R
SHAWANO        PTSUNNY   70  60  70 SW7       30.11R
OCONTO         MOSUNNY   67  60  77 SW9       30.10S
STURGEON BAY   MOSUNNY   68  57  68 S9        30.13S
GREEN BAY      PTSUNNY   68  59  73 SW13      30.12S
MANITOWOC      PTSUNNY   68  59  73 MISG      30.13S
APPLETON       PTSUNNY   64  55  72 S9        30.11R
CLINTONVILLE   PTSUNNY   66  59  77 S10       30.10S
OSHKOSH        CLOUDY    66  58  75 S8        30.12R
$$

WIZ032>034-041-042-053>061-281600-
SOUTHWEST WISCONSIN

CITY           SKY/WX    TMP DP  RH WIND       PRES   REMARKS
LA CROSSE      LGT RAIN  65  61  87 S3        30.08S
SPARTA         LGT RAIN  64  59  81 CALM      30.10R
VIROQUA        CLOUDY    62  62 100 S3        30.10S
BOSCOBEL       CLOUDY    64  61  90 CALM      30.10R
PRAIRIE DU CHI CLOUDY    64  57  78 CALM      30.09R
PLATTEVILLE    CLOUDY    63  61  94 SE7       30.11R
$$

WIZ056-057-062-063-064-067-068-281600-
SOUTH CENTRAL WISCONSIN

CITY           SKY/WX    TMP DP  RH WIND       PRES   REMARKS
REEDSBURG      DRIZZLE   62  59  91 CALM      30.10S
BARABOO/DELLS  CLOUDY    63  57  81 S6        30.11S
LONE ROCK      CLOUDY    63  59  87 E6        30.11R
MINERAL POINT  CLOUDY    63  59  88 SE6       30.11S
MADISON        CLOUDY    64  57  78 S8        30.11S
MIDDLETON      CLOUDY    65  58  78 CALM      30.12R
WATERTOWN      CLOUDY    65  62  88 S6        30.12S
MONROE         CLOUDY    63  59  88 S7        30.12R
JANESVILLE     PTSUNNY   64  61  88 VRB5      30.12F
$$

WIZ051-052-058>065-066-070>072-281600-
SOUTHEAST WISCONSIN

CITY           SKY/WX    TMP DP  RH WIND       PRES   REMARKS
MILWAUKEE      PTSUNNY   70  58  65 SW7       30.14S
WAUKESHA       SUNNY     66  57  72 CALM      30.15S
MILWAUKEE/TIMM SUNNY     70  55  60 SW5       30.14S
RACINE         PTSUNNY   71  58  63 S5        30.16R
BURLINGTON     PTSUNNY   67  58  73 S5        30.14S
KENOSHA        PTSUNNY   71  60  68 SW7       30.15R
FOND DU LAC    CLOUDY    68  59  73 S8        30.13S
SHEBOYGAN      PTSUNNY   68  60  75 SW7       30.13S
WEST BEND      PTSUNNY   68  57  68 CALM      30.14S
JUNEAU         CLOUDY    65  58  79 S5        30.14S
$$

LSZ147-162-281600-
LAKE SUPERIOR

STATION/POSITION TIME  TEMP    WIND        PRES    WAVE
                       AIR SEA DIR/SP/G            HT/PER
                 (UTC) (F)     (DEG/KT/KT) (MB)    (FT/S)
W MID LAKE BUOY  1450   58 55  190/ 10/ 10 1014.7F   1
DEVILS ISLAND    1500   63     220/  5/  7 1015.0R
PORT WING        1400   66     210/  8/ 10 1014.9
SAXON HARBOR     1400   68     200/  7/ 14 1014.9F
$$

LMZ867-665-643>646-281600-
LAKE MICHIGAN

STATION/POSITION TIME  TEMP    WIND        PRES    WAVE
                       AIR SEA DIR/SP/G            HT/PER
                 (UTC) (F)     (DEG/KT/KT) (MB)    (FT/S)
CHAMBERS ISLAND  1400   64     180/  4/ 11 1019.3S
S GREEN BAY BUOY 1500   64     200/ 12/ 14 1020.8R
N MID LAKE BUOY  1450   62 64  200/ 14/ 16 1019.3R   3/ 5
NORTHPORT PIER   1400   65     150/  5/  7 1019.3S
SISTER BAY       1419   70     250/ 11/ 15   N/A
ALGOMA LAKESHORE 1444          210/  6/  7   N/A
KEWAUNEE LAKESHO 1400   50     170/  7/  8 1018.9F
SHEBOYGAN LAKESH 1500   56     160/ 12/ 12 1020.8R
PORT WASHINGTON  1440   54     130/  3/  3 1021.0F
ATWATER BUOY     1500   54 48  130/  6/  6 1021.8F
MILWAUKEE LAKESH 1400   59      90/  1/  1   N/A
S MID LAKE BUOY  1450   67 68  180/  8/ 10 1020.9R
KENOSHA   LAKESH 1500   60     170/  8/  8 1020.7S
$$

TC  - TEMPERATURE IN CELSIUS
VSB - VISIBILITY IN STATUTE MILES
WCI - WIND CHILL INDEX
HX  - HEAT INDEX



USA.gov is the U.S. government's official web portal to all federal, state and local government web resources and services.